www.pogodaiklimat.ru

Погода и климат >> Архив погоды >> Филиппины >> Хинатуан


ПОГОДА в Хинатуане

  • Прогноз погоды в Хинатуане
  • Монитор погоды в Хинатуане

АРХИВ ПОГОДЫ в Хинатуане

Время (UTC), дата Ветер
(напр.,м/с)
 
Видим.   Явления Облачность Т
(С)
Тd
(С)
f
(%)
Тe
(С)
Тes
(С)
Комфортность P
(гПа)
Po
(гПа)
Тmin
(С)
Tmax
(С)
R
(мм)
R24
(мм)
S
(см)
09 11.06 В 2 15 км 5/1 600 м
[Cu med, cong Cs]
+31.4 +26.5 75 +48 +49 опасность
перегрева
1008.5 1008.1
12 11.06 В 2 15 км 6/1 600 м
[Cu med, cong Cs]
+29.5 +26.3 83 +45 +45 опасность
перегрева
1009.8 1009.4 +34.3
15 11.06 З 2 15 км 1/1 600 м
[Cu med, cong Cs]
+27.4 +25.8 91 +41 +41 опасность
перегрева
1010.8 1010.4
18 11.06 З 1 15 км 1/1 600 м
[Cu med, cong Ci fib]
+26.0 +24.8 93 +37 +37 очень
душно
1009.4 1009.0
21 11.06 З 1 15 км 1/1 600 м
[Cu med, cong Ci fib]
+25.4 +23.8 91 +35 +35 очень
душно
1009.4 1009.0
00 12.06 З 1 15 км 8/1 600 м
[Cu med, cong Ac As]
+28.4 +25.5 84 +42 +45 опасность
перегрева
1011.5 1011.1 +25.1
03 12.06 ЮВ 2 15 км 4/3 570 м
[Cb cap Ci sp]
+33.2 +26.5 68 +50 +64 опасность
перегрева
1010.9 1010.5
06 12.06 В 4 15 км 3/3 570 м
[Cb cap Ci fib]
+33.0 +25.4 64 +47 +54 опасность
перегрева
1008.7 1008.3
09 12.06 В 3 15 км 3/1 570 м
[Cb cap Ci sp]
+32.4 +25.9 69 +48 +49 опасность
перегрева
1008.5 1008.1
12 12.06 ЮВ 3 15 км 3/3 600 м
[Cu med, cong Ci fib]
+30.0 +26.6 82 +46 +46 опасность
перегрева
1010.3 1009.9 +33.9
15 12.06 З 1 15 км 1/1 600 м
[Cu med, cong Ci fib]
+28.2 +25.8 87 +42 +42 опасность
перегрева
1010.7 1010.3
18 12.06 З 1 15 км 1/1 600 м
[Cu med, cong Ci fib]
+26.6 +25.0 91 +38 +38 очень
душно
1008.9 1008.5
21 12.06 З 1 15 км 5/1 600 м
[Cu med, cong Ac As Cs]
+25.8 +24.5 93 +36 +36 очень
душно
1008.8 1008.4
00 13.06 Ю 1 15 км 9/1 600 м
[Cu med, cong Ac und]
+27.6 +25.2 87 +40 +43 очень
душно
1009.4 1009.0 +25.3
03 13.06 ЮВ 2 15 км 3/3 600 м
[Cu med, cong Ci fib]
+33.4 +26.2 66 +50 +64 опасность
перегрева
1008.6 1008.2
06 13.06 В 5 15 км 3/3 600 м
[Cb calv Ci fib]
+31.1 +25.8 73 +46 +51 опасность
перегрева
1007.1 1006.7
09 13.06 ЮВ 5 15 км 5/1 570 м
[Cb cap Cs]
+32.7 +25.7 67 +48 +48 опасность
перегрева
1007.5 1007.1
12 13.06 ЮВ 2 15 км 4/3 600 м
[Cu med, cong Ci fib]
+29.8 +26.0 80 +45 +45 опасность
перегрева
1010.2 1009.8 +35.0
15 13.06 З 2 15 км {гроза, ливн. осадки} 9/1 600 м
[Cu med, cong Ac As]
+27.0 +25.4 91 +39 +39 очень
душно
1010.4 1010.0 4
18 13.06 З 1 15 км {гроза, ливн. осадки} 6/1 600 м
[Cu med, cong Cs]
+25.8 +24.2 91 +36 +36 очень
душно
1008.5 1008.1 4
21 13.06 З 1 15 км 1/1 570 м
[Cb cap Ci fib]
+25.4 +23.5 89 +34 +34 очень
душно
1008.5 1008.1
00 14.06 Ю 1 13 км осадки на расстоянии 6/3 540 м
[Cb cap Ac As]
+28.3 +25.6 85 +42 +46 опасность
перегрева
1009.6 1009.2 +25.1 4
03 14.06 ЮВ 2 15 км 6/5 570 м
[Cu Sc Cs]
+31.8 +26.7 74 +49 +58 опасность
перегрева
1009.6 1009.2
06 14.06 З 1 15 км 9/4 570 м
[Cu Sc Ac As]
+29.3 +24.0 73 +41 +45 опасность
перегрева
1007.6 1007.2
09 14.06 ЮВ 1 15 км 9/3 570 м
[Cb cap Ac As]
+30.0 +25.8 78 +45 +45 опасность
перегрева
1007.6 1007.2
12 14.06 З 1 15 км 3/3 600 м
[Cu med, cong Ac As]
+28.2 +25.6 86 +42 +42 опасность
перегрева
1009.3 1008.9 +33.0
15 14.06 З 1 15 км 4/1 600 м
[Cu med, cong Ci fib]
+26.6 +24.6 89 +38 +38 очень
душно
1009.5 1009.1
18 14.06 ЮЗ 1 15 км 3/1 600 м
[Cu med, cong Ac und]
+25.5 +24.6 95 +36 +36 очень
душно
1008.4 1008.0
21 14.06 ЮЗ 1 15 км 5/1 600 м
[Cu Sc Ac As]
+25.0 +24.1 95 +34 +34 очень
душно
1008.6 1008.2
00 15.06 З 2 15 км 1/1 600 м
[Cu med, cong Cs]
+28.5 +25.2 82 +41 +48 опасность
перегрева
1009.8 1009.4 +24.5
03 15.06 ЮВ 3 15 км 4/4 600 м
[Cu med, cong]
+32.0 +26.6 73 +49 +59 опасность
перегрева
1009.4 1009.0
06 15.06 В 5 15 км 5/3 570 м
[Cb cap Ci sp]
+31.1 +26.1 75 +47 +52 опасность
перегрева
1007.0 1006.6
09 15.06 В 3 15 км 4/4 570 м
[Cb cap Ci sp]
+30.2 +26.2 79 +46 +46 опасность
перегрева
1007.2 1006.8
12 15.06 В 1 15 км зарница 4/3 570 м
[Cb cap Ci fib]
+29.6 +25.7 80 +44 +44 опасность
перегрева
1009.4 1009.0 +34.0
15 15.06 З 1 13 км слаб. ливневой дождь 5/3 540 м
[Cb cap Ac As]
+27.5 +25.9 91 +41 +41 опасность
перегрева
1011.0 1010.6 0.4
18 15.06 З 1 15 км зарница {ливн. осадки} 6/3 570 м
[Cb cap Cs]
+26.0 +24.8 93 +37 +37 очень
душно
1009.1 1008.7 0.5
21 15.06 З 1 13 км осадки на расстоянии 4/3 540 м
[Cb cap Ac As]
+25.1 +24.2 95 +35 +35 очень
душно
1008.6 1008.2
00 16.06 З 1 15 км 8/1 600 м
[Cu med, cong Cs]
+28.0 +24.7 82 +40 +47 очень
душно
1009.6 1009.2 +24.6 0.5
03 16.06 ЮВ 3 15 км 4/4 600 м
[Cu med, cong Ci fib]
+33.3 +26.8 69 +51 +61 опасность
перегрева
1009.1 1008.7
06 16.06 В 4 15 км 5/5 570 м
[Cb cap Ci sp]
+31.8 +26.1 72 +48 +52 опасность
перегрева
1007.3 1006.9
09 16.06 ЮВ 4 15 км 6/3 570 м
[Cb cap Cs]
+32.3 +25.8 69 +48 +48 опасность
перегрева
1007.5 1007.1
12 16.06 С 1 13 км слаб. ливневой дождь 5/3 540 м
[Cb cap Ac As]
+29.8 +25.8 79 +44 +44 опасность
перегрева
1010.4 1010.0 +34.5 0.0
15 16.06 З 2 15 км {гроза, ливн. осадки} 5/3 570 м
[Cb cap Ci sp]
+26.4 +24.8 91 +38 +38 очень
душно
1011.3 1010.9 3
18 16.06 З 1 15 км {гроза, ливн. осадки} 6/3 570 м
[Cb cap Ac As]
+25.8 +24.5 93 +36 +36 очень
душно
1010.0 1009.6 3
21 16.06 штиль 0 15 км 5/3 570 м
[Cb cap Ac As]
+25.6 +24.8 95 +36 +36 очень
душно
1010.0 1009.6
00 17.06 З 1 15 км {ливн. осадки} 6/4 600 м
[Cu med, cong Ci fib]
+28.7 +25.7 84 +43 +48 опасность
перегрева
1011.4 1011.0 +25.1 3
03 17.06 В 3 15 км 3/3 600 м
[Cb calv Cs]
+30.4 +26.0 77 +45 +57 опасность
перегрева
1010.7 1010.3
06 17.06 СВ 3 15 км 3/1 600 м
[Cb calv Cs]
+31.1 +25.2 71 +45 +55 опасность
перегрева
1008.6 1008.2
09 17.06 СВ 3 15 км 3/3 600 м
[Cu med, cong Ci fib]
+30.6 +25.4 74 +45 +45 опасность
перегрева
1009.1 1008.7
12 17.06 В 1 15 км слаб. ливневой дождь 3/3 570 м
[Cb cap Cs]
+28.0 +23.4 76 +38 +38 очень
душно
1010.5 1010.1 +32.4 0.0
15 17.06 С 2 15 км {ливн. осадки} 4/4 600 м
[Cu med, cong Cs]
+26.6 +25.0 91 +38 +38 очень
душно
1011.3 1010.9 0.4
18 17.06 З 3 15 км в посл. час ливневой дождь 8/3 570 м
[Cu med, cong Ac As]
+25.5 +24.2 93 +35 +35 очень
душно
1010.2 1009.8 1
21 17.06 З 2 15 км 8/3 600 м
[Cu med, cong Ac As Cs]
+24.8 +23.4 92 +33 +33 очень
душно
1010.7 1010.3
00 18.06 З 2 15 км 3/1 600 м
[Cu med, cong Cs]
+28.3 +23.9 77 +39 +46 очень
душно
1011.4 1011.0 +24.1 1
03 18.06 В 2 15 км 3/3 600 м
[Cu med, cong Cs]
+31.5 +23.6 63 +43 +57 опасность
перегрева
1011.3 1010.9

 

Местоположение метеостанции Хинатуан (Филиппины): широта 8.37 долгота 126.33 высота над уровнем моря 3 м.

В архиве по умолчанию представлена погода в Хинатуане за последнюю неделю. Архивные данные за месяц целиком и за предыдущие месяцы, начиная с января 2011 года, Вы можете получить, выбрав интересующий диапазон дат из раскрывающегося списка и нажав кнопку "Ввод!".


*Определитесь, кто Вы:
робот инопланетянин человек

Внимание! Время в таблицах - всемирное. Для получения местного времени необходимо прибавить поправку, которая равна 8 ч.

Смотрите также архив погоды в соседних городах и на ближайших метеорологических станциях:

Погода в Бутуане (Филиппины) (110 км)
Погода в Малайбалае (Филиппины) (140 км)
Погода в Давао (Филиппины) (158 км)
Погода в Серигао Сити (Филиппины) (183 км)
Погода в Кагаян-де-Оро (Филиппины) (226 км)
Погода в Маасине (Филиппины) (256 км)
Погода в Котобато (Филиппины) (268 км)
Погода в Генерал-Сантосе (Филиппины) (281 км)
Погода в Гуиуане (Филиппины) (303 км)
Погода в Тагбиларане (Филиппины) (305 км)

Пояснения к столбцам:

Ветер - указаны скорость ветра в м/с - средняя за 10 мин, порывы в срок и между сроками (в фигурных скобках) и направление, откуда дует ветер: С - северный, СВ - северо-восточный, В - восточный, ЮВ - юго-восточный, Ю - южный, ЮЗ - юго-западный, З - западный, СЗ - северо-западный.
Видимость - горизонтальная дальность видимости в метрах или километрах. При видимости от 1 до 10 км при отсутствии осадков обычно наблюдается дымка, при ухудшении видимости до 1 км и менее - туман. В сухую погоду видимость может ухудшаться дымом, пылью или мглою.
Явления - указаны атмосферные явления, наблюдавшиеся в срок или в последний час перед сроком; фигурными скобками обозначены явления, наблюдавшиеся между сроками (за 1-3 часа до срока); квадратными скобками обозначены град или гололедные отложения с указанием их диаметра в мм.
Облачность - указаны через наклонную черту общая и нижняя облачность в баллах и высота нижней границы облаков в метрах; квадратными скобками обозначены формы облаков: Ci - перистые, Cs - перисто-слоистые, Cc - перисто-кучевые, Ac - высококучевые, As - высокослоистые, Sc - слоисто-кучевые, Ns - слоисто-дождевые, Cu - кучевые, Cb - кучево-дождевые. Подробнее классификацию облаков см. в Атласе облаков (PDF).
T - Температура воздуха - температура, измеренная на высоте 2 м над землей.
Td - Температура точки росы - температура, при понижении до которой содержащийся в воздухе водяной пар достигнет насыщения.
f - Относительная влажность воздуха - влажноcть воздуха, измеренная на высоте 2 м над землей.
Te - Эффективная температура - температура, которую ощущает одетый по сезону человек в тени. Характеристика душности погоды. При расчете учитывается влияние влажности воздуха и скорости ветра на теплоощущения человека.
Tes - Эффективная температура на солнце - температура, которую ощущает человек, с поправкой на солнечный нагрев. Характеристика знойности погоды. Зависит от высоты солнца над горизонтом, облачности и скорости ветра. Ночью, в пасмурную погоду, а также при ветре 12 м/с и более поправка равна нулю.
P - Атмосферное давление - приведенное к уровню моря атмосферное давление.
Po - Атмосферное давление - измеренное на уровне метеостанции атмосферное давление.
Tmin - Минимальная температура - минимум температуры воздуха на высоте 2 м над землей.
Tmax - Максимальная температура - максимум температуры воздуха на высоте 2 м над землей.
R - Количество осадков - Количество выпавших осадков за период времени, мм. При наведении курсора мыши на число - период времени, за который выпало указанное количество осадков.
R24 - Количество осадков - Количество выпавших осадков за 24 часа, мм.
S - Снежный покров - Высота снежного покрова, см. При наведении курсора мыши на число - состояние снежного покрова и степень покрытия местности в баллах.